TimeAKDT,TemperatureF,Dew PointF,Humidity,Sea Level PressureIn,VisibilityMPH,Wind Direction,Wind SpeedMPH,Gust SpeedMPH,PrecipitationIn,Events,Conditions,WindDirDegrees,DateUTC
12:16 AM,26.6,21.2,80,29.66,10.0,East,4.6,-,N/A,,Scattered Clouds,100,2013-09-20 08:16:00
12:36 AM,24.8,19.4,80,29.66,10.0,ESE,3.5,-,N/A,,Clear,110,2013-09-20 08:36:00
12:56 AM,23.0,19.4,86,29.66,10.0,East,4.6,-,N/A,,Partly Cloudy,90,2013-09-20 08:56:00
1:16 AM,24.8,19.4,80,29.66,10.0,ESE,4.6,-,N/A,,Mostly Cloudy,110,2013-09-20 09:16:00
1:36 AM,23.0,19.4,86,29.65,10.0,East,3.5,-,N/A,,Overcast,100,2013-09-20 09:36:00
1:56 AM,23.0,19.4,86,29.65,10.0,Calm,Calm,-,N/A,,Overcast,0,2013-09-20 09:56:00
2:16 AM,23.0,19.4,86,29.64,10.0,Calm,Calm,-,N/A,,Overcast,0,2013-09-20 10:16:00
2:36 AM,23.0,19.4,86,29.64,10.0,East,3.5,-,N/A,,Mostly Cloudy,100,2013-09-20 10:36:00
2:56 AM,21.2,19.4,93,29.64,10.0,ESE,3.5,-,N/A,,Partly Cloudy,110,2013-09-20 10:56:00
3:16 AM,21.2,17.6,86,29.63,10.0,Calm,Calm,-,N/A,,Clear,0,2013-09-20 11:16:00
3:36 AM,21.2,17.6,86,29.63,10.0,Calm,Calm,-,N/A,,Clear,0,2013-09-20 11:36:00
3:56 AM,21.2,19.4,93,29.62,10.0,ESE,3.5,-,N/A,,Clear,120,2013-09-20 11:56:00
4:16 AM,21.2,17.6,86,29.62,10.0,Calm,Calm,-,N/A,,Clear,0,2013-09-20 12:16:00
4:36 AM,19.4,17.6,93,29.61,10.0,Calm,Calm,-,N/A,,Clear,0,2013-09-20 12:36:00
4:56 AM,21.2,17.6,86,29.61,10.0,Calm,Calm,-,N/A,,Clear,0,2013-09-20 12:56:00
5:16 AM,21.2,17.6,86,29.61,10.0,ESE,3.5,-,N/A,,Clear,110,2013-09-20 13:16:00
5:36 AM,21.2,17.6,86,29.60,10.0,Calm,Calm,-,N/A,,Clear,0,2013-09-20 13:36:00
5:56 AM,19.4,17.6,93,29.59,10.0,Calm,Calm,-,N/A,,Mostly Cloudy,0,2013-09-20 13:56:00
6:16 AM,21.2,17.6,86,29.59,10.0,Calm,Calm,-,N/A,,Overcast,0,2013-09-20 14:16:00
6:36 AM,21.2,19.4,93,29.58,10.0,South,3.5,-,N/A,,Overcast,170,2013-09-20 14:36:00
6:56 AM,23.0,19.4,86,29.57,10.0,SSE,3.5,-,N/A,,Overcast,150,2013-09-20 14:56:00
7:16 AM,23.0,19.4,86,29.57,10.0,SE,4.6,-,N/A,,Overcast,130,2013-09-20 15:16:00
7:36 AM,23.0,19.4,86,29.56,10.0,SE,4.6,-,N/A,,Overcast,140,2013-09-20 15:36:00
7:56 AM,24.8,19.4,80,29.56,10.0,SE,3.5,-,N/A,,Overcast,130,2013-09-20 15:56:00
8:16 AM,24.8,19.4,80,29.55,10.0,ESE,3.5,-,N/A,,Overcast,120,2013-09-20 16:16:00
8:36 AM,24.8,19.4,80,29.55,10.0,SSE,4.6,-,N/A,,Overcast,160,2013-09-20 16:36:00
8:56 AM,24.8,19.4,80,29.54,10.0,SE,4.6,-,N/A,,Overcast,130,2013-09-20 16:56:00
9:16 AM,24.8,19.4,80,29.53,10.0,SE,5.8,-,N/A,,Overcast,130,2013-09-20 17:16:00
9:36 AM,24.8,21.2,86,29.53,10.0,Calm,Calm,-,N/A,,Overcast,0,2013-09-20 17:36:00
9:56 AM,26.6,21.2,80,29.52,10.0,Calm,Calm,-,N/A,,Overcast,0,2013-09-20 17:56:00
10:16 AM,26.6,21.2,80,29.52,10.0,SE,4.6,-,N/A,,Overcast,140,2013-09-20 18:16:00
10:36 AM,26.6,21.2,80,29.52,10.0,SSE,5.8,-,N/A,,Overcast,150,2013-09-20 18:36:00
10:56 AM,26.6,23.0,86,29.51,10.0,SE,5.8,-,N/A,,Overcast,140,2013-09-20 18:56:00
11:16 AM,26.6,23.0,86,29.50,10.0,SE,6.9,-,N/A,,Overcast,130,2013-09-20 19:16:00
11:36 AM,28.4,23.0,80,29.50,10.0,SE,5.8,-,N/A,,Overcast,140,2013-09-20 19:36:00
11:56 AM,28.4,24.8,86,29.49,10.0,SE,6.9,-,N/A,,Overcast,140,2013-09-20 19:56:00
12:16 PM,30.2,23.0,75,29.48,10.0,SSE,5.8,-,N/A,,Overcast,160,2013-09-20 20:16:00
12:36 PM,30.2,23.0,75,29.48,10.0,SE,5.8,-,N/A,,Overcast,140,2013-09-20 20:36:00
12:56 PM,30.2,23.0,75,29.47,10.0,SSE,4.6,-,N/A,,Overcast,150,2013-09-20 20:56:00
1:16 PM,32.0,23.0,69,29.46,10.0,SE,5.8,-,N/A,,Overcast,130,2013-09-20 21:16:00
1:36 PM,33.8,23.0,65,29.45,10.0,SSE,3.5,-,N/A,,Overcast,160,2013-09-20 21:36:00
1:56 PM,33.8,23.0,65,29.44,10.0,South,3.5,-,N/A,,Overcast,180,2013-09-20 21:56:00
2:16 PM,33.8,23.0,65,29.43,10.0,Calm,Calm,-,N/A,,Overcast,0,2013-09-20 22:16:00
2:36 PM,35.6,23.0,60,29.43,10.0,SE,4.6,-,N/A,,Overcast,130,2013-09-20 22:36:00
2:56 PM,35.6,21.2,56,29.42,10.0,Calm,Calm,-,N/A,,Overcast,0,2013-09-20 22:56:00
3:16 PM,35.6,21.2,56,29.41,10.0,Calm,Calm,-,N/A,,Overcast,0,2013-09-20 23:16:00
3:36 PM,35.6,23.0,60,29.41,10.0,Calm,Calm,-,N/A,,Overcast,0,2013-09-20 23:36:00
3:56 PM,35.6,21.2,56,29.40,10.0,Calm,Calm,-,N/A,,Overcast,0,2013-09-20 23:56:00
4:16 PM,35.6,23.0,60,29.39,10.0,Calm,Calm,-,N/A,,Overcast,0,2013-09-21 00:16:00
4:36 PM,35.6,21.2,56,29.38,10.0,South,3.5,-,N/A,,Overcast,170,2013-09-21 00:36:00
4:56 PM,35.6,23.0,60,29.38,10.0,Calm,Calm,-,N/A,,Overcast,0,2013-09-21 00:56:00
5:16 PM,35.6,21.2,56,29.37,10.0,Calm,Calm,-,N/A,,Overcast,0,2013-09-21 01:16:00
5:36 PM,35.6,23.0,60,29.37,10.0,Calm,Calm,-,N/A,,Overcast,0,2013-09-21 01:36:00
5:56 PM,35.6,21.2,56,29.36,10.0,Calm,Calm,-,N/A,,Overcast,0,2013-09-21 01:56:00
6:16 PM,35.6,21.2,56,29.36,10.0,Calm,Calm,-,N/A,,Overcast,0,2013-09-21 02:16:00
6:36 PM,35.6,23.0,60,29.35,10.0,NW,5.8,-,N/A,,Overcast,320,2013-09-21 02:36:00
6:56 PM,35.6,23.0,60,29.35,10.0,Calm,Calm,-,N/A,,Overcast,0,2013-09-21 02:56:00
7:16 PM,35.6,23.0,60,29.35,10.0,West,3.5,-,N/A,,Overcast,280,2013-09-21 03:16:00
7:36 PM,33.8,24.8,70,29.34,10.0,WNW,3.5,-,N/A,,Overcast,290,2013-09-21 03:36:00
7:56 PM,33.8,24.8,70,29.34,10.0,West,3.5,-,N/A,,Overcast,260,2013-09-21 03:56:00
8:16 PM,33.8,24.8,70,29.33,10.0,Calm,Calm,-,N/A,,Overcast,0,2013-09-21 04:16:00
8:36 PM,33.8,24.8,70,29.33,10.0,NW,3.5,-,N/A,,Overcast,310,2013-09-21 04:36:00
8:56 PM,33.8,24.8,70,29.33,10.0,NW,3.5,-,N/A,,Overcast,320,2013-09-21 04:56:00
9:16 PM,33.8,24.8,70,29.32,10.0,NW,3.5,-,N/A,,Overcast,310,2013-09-21 05:16:00
9:36 PM,32.0,24.8,75,29.31,10.0,NW,3.5,-,N/A,,Overcast,320,2013-09-21 05:36:00
9:56 PM,32.0,24.8,75,29.31,10.0,NW,3.5,-,N/A,,Overcast,310,2013-09-21 05:56:00
10:16 PM,30.2,24.8,80,29.31,10.0,Calm,Calm,-,N/A,,Overcast,0,2013-09-21 06:16:00
10:36 PM,32.0,26.6,80,29.31,10.0,Calm,Calm,-,N/A,,Overcast,0,2013-09-21 06:36:00
10:56 PM,32.0,26.6,80,29.30,10.0,Calm,Calm,-,N/A,,Overcast,0,2013-09-21 06:56:00
11:16 PM,30.2,26.6,86,29.29,10.0,South,3.5,-,N/A,,Overcast,170,2013-09-21 07:16:00
11:36 PM,30.2,26.6,86,29.29,10.0,Calm,Calm,-,N/A,,Mostly Cloudy,0,2013-09-21 07:36:00
11:56 PM,30.2,26.6,86,29.28,10.0,Calm,Calm,-,N/A,,Mostly Cloudy,0,2013-09-21 07:56:00